Find Hai Yang 4-01

NORAD ID: 61936 Int'l Des: 2024-208 Owner: GYZ/CASC Country: CN operational
LEOCIRCULARRETROGRADESSO

Live Position

Loading 3D Globe...

About Hai Yang 4-01

Description loading...

Upcoming Passes

Passes for default location (London). Set your location on the main map for personalized predictions.

Altitude History

Loading altitude history...

Two-Line Element Set

1 61936U 24208A 26105.64197334 .00000251 00000-0 46445-4 0 9997
2 61936 98.0057 114.2504 0002163 57.5930 302.5487 14.73316328 76239
Epoch: Apr 15, 2026 • Age: 5 hours

Current Status

Altitude 662.6 km
Velocity 7.53 km/s
Sub-Earth Point 81.31°N, 106.12°W
Launch Date Nov 13, 2024
Age 1.4 years
Type other

Technical Details

Classification Payload
Mass 1500.00 kg
Dry Mass 1500.00 kg
Total Mass 1500.00 kg
Length 1.00 m
Diameter 1.00 m
Span 4.00 m
Shape Box + 2 Pan
Manufacturer CAST
Bus Type CAST-968
Phase Status In Orbit
Owner/State GYZ/CASC/CN

Most Searched